Location: Cañada de la Miga
(34.7595°N, 106.2317°W)
Time: 14:26:13
(UTC+00:00)

Hubble Space Telescope - Visible Passes

Search period start: 23 October 2021 00:00
Search period end: 02 November 2021 00:00
Orbit: 535 x 538 km, 28.5° (Epoch: 22 October)

Date Brightness Start Highest point End Pass type
(mag) Time Alt. Az. Time Alt. Az. Time Alt. Az.
28 Oct 3.1 01:14:04 10° S 01:15:27 11° SSE 01:16:48 10° SE visible
29 Oct 3.0 01:02:03 10° SSW 01:04:14 14° SSE 01:06:25 10° SE visible
29 Oct 3.4 02:41:17 10° SW 02:42:05 14° SW 02:42:05 14° SW visible
30 Oct 2.8 00:50:23 10° SSW 00:53:02 17° SSE 00:55:42 10° ESE visible
30 Oct 3.0 02:30:03 10° SW 02:31:40 20° SW 02:31:40 20° SW visible
31 Oct 2.7 00:38:52 10° SSW 00:41:52 20° SSE 00:44:51 10° ESE visible
31 Oct 2.5 02:18:51 10° WSW 02:21:13 26° SSW 02:21:13 26° SSW visible
01 Nov 2.1 02:07:41 10° WSW 02:10:45 32° SSW 02:10:45 32° SSW visible
